This demonstration page uses our WeatherBlox Daily Observations layout. Learn more.

Left ArrowRight Arrow

Hourly Observations for June 6, 2022

Temp ( °F °C ) Dew Point ( °F °C ) Humidity (%) Winds ( mph kmh ) Pressure ( in mb ) Visibility ( mi km ) Precip ( " mm )
12:15 am 00:15 Clear 64 18 55 13 73 73 Calm 30.02 1017 10 16 0.00 0.00
12:35 am 00:35 Clear 63 17 55 13 77 77 Calm 30.03 1017 10 16 0.00 0.00
12:55 am 00:55 Clear 63 17 55 13 77 77 Calm 30.03 1017 10 16 0.00 0.00
1:15 am 01:15 Clear 61 16 55 13 83 83 Calm 30.03 1017 10 16 0.00 0.00
1:35 am 01:35 Clear 61 16 55 13 83 83 Calm 30.04 1017 10 16 0.00 0.00
1:55 am 01:55 Clear 63 17 55 13 77 77 Calm 30.03 1017 10 16 0.00 0.00
2:15 am 02:15 Clear 61 16 55 13 83 83 Calm 30.04 1017 10 16 0.00 0.00
2:35 am 02:35 Clear 59 15 55 13 88 88 WSW 3 6 30.04 1017 10 16 0.00 0.00
2:55 am 02:55 Clear 61 16 55 13 83 83 SW 3 6 30.03 1017 10 16 0.00 0.00
3:15 am 03:15 Clear 61 16 55 13 83 83 WSW 3 6 30.04 1017 10 16 0.00 0.00
3:35 am 03:35 Clear 59 15 55 13 88 88 Calm 30.04 1017 10 16 0.00 0.00
3:55 am 03:55 Clear 59 15 55 13 88 88 Calm 30.03 1017 10 16 0.00 0.00
4:15 am 04:15 Clear 59 15 55 13 88 88 Calm 30.03 1017 10 16 0.00 0.00
4:35 am 04:35 Clear 59 15 55 13 88 88 Calm 30.02 1017 10 16 0.00 0.00
4:55 am 04:55 Clear 57 14 55 13 94 94 S 3 6 30.03 1017 10 16 0.00 0.00
5:15 am 05:15 Clear 59 15 55 13 88 88 Calm 30.03 1017 10 16 0.00 0.00
5:35 am 05:35 Clear 55 13 55 13 100 100 Calm 30.04 1017 10 16 0.00 0.00
5:55 am 05:55 Sunny 57 14 55 13 94 94 Calm 30.05 1018 10 16 0.00 0.00
6:15 am 06:15 Sunny 55 13 54 12 94 94 Calm 30.05 1018 10 16 0.00 0.00
6:35 am 06:35 Sunny 57 14 55 13 94 94 Calm 30.06 1018 10 16 0.00 0.00
6:55 am 06:55 Sunny 59 15 55 13 88 88 Calm 30.06 1018 10 16 0.00 0.00
7:15 am 07:15 Sunny 61 16 55 13 83 83 Calm 30.06 1018 10 16 0.00 0.00
7:35 am 07:35 Sunny 63 17 55 13 77 77 Calm 30.07 1018 10 16 0.00 0.00
7:55 am 07:55 Sunny 64 18 55 13 73 73 Calm 30.06 1018 10 16 0.00 0.00
8:15 am 08:15 Sunny 66 19 57 14 73 73 Calm 30.07 1018 10 16 0.00 0.00
8:35 am 08:35 Sunny 68 20 57 14 69 69 SSW 3 6 30.07 1018 10 16 0.00 0.00
8:55 am 08:55 Sunny 70 21 54 12 57 57 SSW 5 7 30.07 1018 10 16 0.00 0.00
9:15 am 09:15 Sunny 72 22 54 12 53 53 S 6 9 30.07 1018 10 16 0.00 0.00
9:35 am 09:35 Sunny 73 23 50 10 44 44 S 12 19 30.07 1018 10 16 0.00 0.00
9:55 am 09:55 Sunny 73 23 48 9 41 41 SSW 8 13 30.07 1018 10 16 0.00 0.00
10:15 am 10:15 Sunny 75 24 48 9 39 39 S 10 17 30.07 1018 10 16 0.00 0.00
10:35 am 10:35 Sunny 75 24 48 9 39 39 S 13 20 30.07 1018 10 16 0.00 0.00
10:55 am 10:55 Sunny 77 25 46 8 34 34 S 10 17 30.06 1018 10 16 0.00 0.00
11:15 am 11:15 Sunny 77 25 48 9 36 36 S 12 19 30.07 1018 10 16 0.00 0.00
11:35 am 11:35 Sunny 79 26 48 9 34 34 S 13 20 30.06 1018 10 16 0.00 0.00
11:55 am 11:55 Sunny 79 26 50 10 37 37 SSW 12 19 30.07 1018 10 16 0.00 0.00
12:15 pm 12:15 Sunny 79 26 48 9 34 34 S 13 20 30.06 1018 10 16 0.00 0.00
12:35 pm 12:35 Sunny 79 26 50 10 37 37 SSW 9 15 30.06 1018 10 16 0.00 0.00
12:55 pm 12:55 Sunny 81 27 48 9 32 32 SSE 10 17 30.06 1018 10 16 0.00 0.00
1:15 pm 13:15 Sunny 81 27 50 10 34 34 S 12 19 30.06 1018 10 16 0.00 0.00
1:35 pm 13:35 Sunny 81 27 50 10 34 34 SSW 7 11 30.05 1018 10 16 0.00 0.00
1:55 pm 13:55 Sunny 81 27 50 10 34 34 SW 9 15 30.04 1017 10 16 0.00 0.00
2:15 pm 14:15 Sunny 81 27 50 10 34 34 SSE 14 22 30.03 1017 10 16 0.00 0.00
2:35 pm 14:35 Sunny 81 27 50 10 34 34 S 12 19 30.03 1017 10 16 0.00 0.00
2:55 pm 14:55 Sunny 81 27 52 11 37 37 SSW 10 17 30.03 1017 10 16 0.00 0.00
3:15 pm 15:15 Sunny 82 28 52 11 35 35 SSE 10 17 30.03 1017 10 16 0.00 0.00
3:35 pm 15:35 Sunny 82 28 52 11 35 35 S 10 17 30.02 1017 10 16 0.00 0.00
3:55 pm 15:55 Sunny 82 28 52 11 35 35 SSE 14 22 30.02 1017 10 16 0.00 0.00
4:15 pm 16:15 Sunny 82 28 54 12 37 37 S 10 17 30.01 1016 10 16 0.00 0.00
4:35 pm 16:35 Sunny 82 28 54 12 37 37 S 15 24 30.00 1016 10 16 0.00 0.00
4:55 pm 16:55 Sunny 82 28 54 12 37 37 S 17 28 30.00 1016 10 16 0.00 0.00
5:15 pm 17:15 Sunny 81 27 54 12 39 39 S 13 20 29.99 1016 10 16 0.00 0.00
5:35 pm 17:35 Sunny 81 27 54 12 39 39 SSE 9 15 29.98 1015 10 16 0.00 0.00
5:55 pm 17:55 Sunny 81 27 54 12 39 39 S 12 19 29.97 1015 10 16 0.00 0.00
6:15 pm 18:15 Sunny 81 27 54 12 39 39 S 12 19 29.97 1015 10 16 0.00 0.00
6:35 pm 18:35 Sunny 81 27 54 12 39 39 S 12 19 29.97 1015 10 16 0.00 0.00
6:55 pm 18:55 Sunny 81 27 54 12 39 39 SSE 16 26 29.98 1015 10 16 0.00 0.00
7:15 pm 19:15 Sunny 79 26 54 12 42 42 SSE 12 19 29.98 1015 10 16 0.00 0.00
7:35 pm 19:35 Sunny 79 26 54 12 42 42 SSE 13 20 29.98 1015 10 16 0.00 0.00
7:55 pm 19:55 Sunny 79 26 52 11 39 39 S 12 19 29.98 1015 10 16 0.00 0.00
8:15 pm 20:15 Sunny 77 25 52 11 42 42 S 10 17 29.98 1015 10 16 0.00 0.00
8:35 pm 20:35 Clear 75 24 54 12 47 47 SSE 12 19 30.00 1016 10 16 0.00 0.00
8:55 pm 20:55 Clear 73 23 54 12 50 50 S 10 17 30.01 1016 10 16 0.00 0.00
9:15 pm 21:15 Clear 73 23 54 12 50 50 S 12 19 30.02 1016 10 16 0.00 0.00
9:35 pm 21:35 Clear 73 23 52 11 47 47 S 9 15 30.03 1017 10 16 0.00 0.00
9:55 pm 21:55 Clear 72 22 52 11 50 50 SSE 9 15 30.04 1017 10 16 0.00 0.00
10:15 pm 22:15 Clear 72 22 52 11 50 50 SSE 9 15 30.04 1017 10 16 0.00 0.00
10:35 pm 22:35 Clear 72 22 52 11 50 50 SSE 10 17 30.05 1018 10 16 0.00 0.00
10:55 pm 22:55 Clear 70 21 54 12 57 57 SSE 7 11 30.04 1017 10 16 0.00 0.00
11:15 pm 23:15 Clear 70 21 54 12 57 57 SSE 7 11 30.04 1017 10 16 0.00 0.00
11:35 pm 23:35 Clear 70 21 54 12 57 57 S 8 13 30.04 1017 10 16 0.00 0.00
11:55 pm 23:55 Clear 70 21 54 12 57 57 S 10 17 30.04 1017 10 16 0.00 0.00

Powered by AerisWeather